ATLAS 5 CENTAUR DEB, 44678

Orbit data source: Space-Track

ATLAS 5 CENTAUR DEB, 44678 is space debris in HEO originally from a launch on Wed, 17 Oct 2018 UTC launched from the Air Force Eastern Test Range (AFETR). Debris objects in space refer to the collection of defunct objects orbiting the Earth. Examples of debris include non-operational satellites, rocket bodies, and fragments generated from explosions, collisions, or faulty payload assembly.

Loading next visibility...
ATLAS 5 CENTAUR DEB details
Identifier
44678, 2018-079AQ
Orbit
HEO
Last TLE update20 hours ago
Origin
Flag of USULA (US)
ManufacturerULA Decatur
MissionSpacecraft
Bus & MotorUnknown
MassUnknown
Launch date (UTC)
2018-10-17 (6 years ago)
Launch vehicleUnknown
Launch site
Air Force Eastern Test Range (AFETR)
Object type
Payload
Rocket body
Debris
Shape & HBRUnknown
Radar Cross SectionRCS unknown

Expand to show TLE details & history

TLE from 20 hours ago
0 ATLAS 5 CENTAUR DEB
1 44678U 18079AQ  24339.28196261 -.00000070  00000-0  00000-0 0  9998
2 44678  12.6455  82.2880 4655255 220.1724  93.8925  1.82233904 40868
Epoch: 2024-12-04T06:46Z
Definitive object data (Epoch: 2024-12-04T06:46:01.569Z)
Latitude0.00001°
Longitude-92.88215°
Altitude28,058.291 km
Speed3.012 km/s
True Right ascension05h 28m 48s
True Declination0° 00' 00"
Sunlit
Object was in daylight at TLE epoch
Visualization TLE readout
Latitude12.64522°
Longitude-0.17113°
Altitude24,581.713 km
Speed3.416 km/s
Apparent Right ascension11h 49m 34s
Apparent Declination4° 25' 10"
Sunlit
Object is in daylight
Visualization observer readout
Local Sidereal Time00:51:27
Azimuth21.486° NNE
Elevation-43.436°
Doppler factor1
Orbital elements
Apogee altitude35,118.03 km
Perigee altitude8,755.44 km
Semi-major axis28,314.872 km
Eccentricity0.4655255
Inclination12.6455°
RAAN82.288°
Arg. of periapsis220.1724°
True anomaly139.7794°
Mean anomaly93.8925°
Eccentric anomaly117.54232°
Mean motion0.45553 °/min
BSTARUnknown
Orbital period790.28 mins
Loading maneuver chart data...

ATLAS 5 CENTAUR DEB Visibility forecast

Observer location: undefined°, undefined

Span
Click to sort rows by Start time (UTC) header in descending order
Start Az.
Max El. time (UTC)
Max El. Az.
Max El.
End time (UTC)
End Az.
692 mins2024-12-05 07:05:18.566Z228.161° WSW2024-12-05 17:30:18.566Z209.1° SW34.676°2024-12-05 18:37:18.566Z136.026° SSE
|